RH
75 75 75 76 75 75 75 76 76 77 77 77 78 80 80 83 83 39 20 18 22 67 65 28 29 31 28 31 29 27 43 34 20 26 20 18 19 20 22 29 28 28 37 42 43
74 75 75 75 75 74 75 75 75 76 77 78 79 79 80 82 37 16 22 52 60 70 30 25 30 30 30 29 25 28 83 51 16 14 23 19 17 21 24 27 30 30 35 39 39
75 75 76 75 74 74 75 75 76 76 77 78 79 79 79 66 25 8 56 54 66 67 13 19 21 28 28 22 23 23 53 52 16 15 17 17 19 17 21 26 28 37 41 40 40
76 76 76 76 75 75 76 76 77 78 78 78 79 78 77 39 13 16 62 60 64 22 11 18 20 28 25 23 20 24 21 31 15 14 16 18 17 19 18 18 22 30 35 38 40
76 79 81 81 79 79 80 82 81 79 79 78 78 77 57 22 10 18 71 57 19 19 11 18 21 24 24 18 18 22 19 17 16 15 13 15 19 24 21 17 20 28 34 37 38
80 82 83 82 82 81 81 83 84 80 80 82 81 74 39 22 6 5 10 21 14 19 10 13 17 18 19 17 18 17 18 16 15 14 12 13 17 18 20 19 23 29 33 34 34
82 83 83 82 81 81 82 84 82 86 87 86 82 52 26 18 6 4 10 14 13 15 10 10 11 17 17 18 14 16 16 17 16 13 11 11 16 19 18 22 25 28 31 32 33
83 83 82 82 81 81 82 85 83 86 80 78 77 41 27 11 11 6 9 13 13 14 10 9 10 14 17 13 13 17 16 16 12 11 10 11 17 15 15 22 26 27 28 31 31
83 83 82 81 81 82 83 84 80 76 75 74 51 34 22 22 10 9 8 14 15 15 14 10 12 16 16 17 14 12 16 16 12 10 10 11 14 13 14 18 24 27 27 27 30
83 83 82 81 81 83 84 81 68 77 57 40 31 33 22 13 9 7 7 11 17 18 18 16 16 18 18 20 20 14 13 12 14 11 10 11 12 13 13 16 20 26 27 28 28
84 84 82 81 82 84 54 15 23 38 33 26 22 20 13 10 8 6 10 13 17 19 23 19 22 24 16 19 14 12 10 11 11 10 11 13 13 12 12 15 18 24 27 28 27
84 84 82 81 83 85 25 19 25 24 28 14 11 10 11 12 14 7 8 12 21 23 16 18 22 13 10 9 13 13 12 11 10 9 12 12 13 11 11 14 16 21 24 26 26
85 84 82 83 83 38 18 17 15 18 25 13 8 9 8 13 15 12 6 11 18 23 14 12 10 9 8 8 10 10 11 11 10 10 10 12 14 13 10 12 16 17 21 22 25
85 84 82 88 44 16 14 14 14 18 26 9 10 9 8 9 16 10 5 9 13 19 17 12 8 8 9 8 7 8 7 9 9 11 14 11 16 15 12 12 16 16 19 20 23
85 83 84 90 31 19 16 11 13 20 20 8 10 9 8 10 8 12 7 6 11 12 13 14 10 9 10 8 7 8 6 8 9 10 11 11 14 14 11 12 13 15 17 18 20
84 82 85 28 18 12 12 11 17 28 20 10 9 11 12 11 10 9 10 6 8 9 9 10 7 7 8 7 7 6 7 7 7 8 13 12 11 13 10 12 11 12 13 16 17
84 84 70 26 17 11 13 14 19 18 8 18 17 13 11 12 13 11 14 11 11 14 13 10 9 7 6 8 7 8 9 12 11 11 12 10 11 13 10 8 9 10 12 12 15
83 84 48 16 11 12 16 17 24 12 22 20 20 18 19 14 11 11 14 16 10 9 10 12 13 8 7 8 10 10 8 10 20 11 9 9 12 10 8 8 7 9 9 11 13
85 16 16 12 12 13 19 19 15 24 25 23 21 19 16 13 14 12 13 14 12 9 14 13 13 7 7 7 8 11 10 6 7 7 7 6 7 6 6 7 8 8 9 10 13
42 18 16 11 13 15 19 24 19 18 17 18 25 21 26 22 18 16 13 11 12 10 11 13 16 9 8 7 7 9 8 9 8 17 15 9 10 8 11 10 9 10 10 10 10
34 17 16 12 13 15 15 16 18 14 14 19 20 24 30 35 33 22 16 19 18 16 12 12 14 13 9 10 10 10 10 10 7 8 11 12 9 6 9 10 10 9 9 9 9
23 23 16 14 18 13 16 20 34 15 14 17 20 22 24 31 43 34 29 27 20 21 18 14 15 19 11 8 8 8 10 11 12 18 9 9 9 6 6 6 8 9 9 8 9
31 21 14 14 23 19 20 18 19 19 19 22 22 34 38 41 56 56 41 28 20 21 27 20 20 23 16 10 9 10 9 9 9 9 17 11 10 8 8 8 8 9 9 10 11
32 26 19 17 17 23 27 26 27 28 21 20 30 33 40 36 30 39 48 33 21 21 43 36 22 23 17 16 11 14 10 9 9 11 12 11 10 11 10 12 12 10 10 10 12
35 32 33 33 26 28 29 28 33 36 22 21 34 41 41 48 48 84 51 34 22 30 24 22 33 24 17 13 13 10 10 9 11 11 13 10 11 10 11 11 10 10 11 12 14
67 50 38 40 34 41 37 38 35 26 27 26 29 30 32 46 43 47 60 46 39 32 28 21 31 26 23 15 18 17 13 10 9 10 10 10 10 8 9 9 10 10 11 12 12
94 76 68 57 40 39 42 34 30 27 28 31 34 30 31 33 33 26 28 27 27 31 30 32 26 32 33 22 21 24 16 14 11 10 10 13 12 9 10 11 12 12 12 12 12
Wind_Speed
20 20 21 21 22 22 21 21 20 20 19 18 16 15 15 15 18 14 17 9 10 16 12 18 22 20 18 19 20 13 9 6 4 9 13 9 14 11 11 13 9 3 22 25 25
21 21 22 22 22 22 22 22 22 21 21 18 16 14 15 14 17 22 15 10 13 18 19 23 24 21 17 19 16 15 8 10 7 5 11 9 16 10 12 12 11 17 27 26 26
22 23 23 24 23 23 23 24 24 23 20 19 16 14 14 14 15 14 6 22 18 22 21 21 20 20 21 16 18 17 10 25 6 9 2 12 16 9 14 12 14 19 26 27 26
23 24 24 25 25 25 25 25 24 23 21 18 16 14 12 14 8 10 6 18 21 24 24 21 22 23 21 22 17 17 10 17 9 6 1 7 15 13 4 14 18 20 25 26 25
24 24 24 25 26 26 26 25 24 24 21 18 14 11 10 12 17 7 13 12 19 26 27 24 25 23 23 19 15 18 17 10 4 4 4 3 7 5 9 14 20 21 24 25 23
24 23 24 25 26 27 27 26 25 24 19 15 11 9 12 19 8 10 9 15 18 27 27 25 22 23 22 20 18 14 17 10 10 11 9 10 8 8 12 14 20 22 24 24 24
24 25 26 27 27 27 27 26 26 20 16 13 12 13 15 19 3 5 14 18 19 26 25 23 21 19 21 16 15 19 8 16 14 13 9 9 12 15 17 17 19 22 22 24 24
24 26 26 28 29 29 28 24 23 16 6 5 15 12 11 5 18 11 14 19 19 23 22 21 22 21 23 16 7 19 20 17 20 19 15 13 16 17 16 18 20 22 21 23 24
24 25 27 29 30 30 27 22 18 5 4 13 12 15 12 4 14 20 18 21 21 20 19 16 21 15 23 19 15 18 18 23 21 22 16 16 16 20 19 19 19 19 20 21 23
25 26 28 28 30 31 27 22 6 5 11 11 8 8 10 11 14 19 20 21 22 19 19 18 15 19 20 21 20 21 23 21 22 17 18 19 19 15 20 19 18 19 20 21 23
27 27 28 30 30 31 18 8 5 10 14 16 7 16 2 7 3 17 21 20 22 21 20 24 21 26 29 26 24 22 21 23 22 17 22 18 20 18 16 14 17 20 21 22 23
27 28 28 30 29 26 14 13 9 9 18 22 30 28 28 6 12 18 23 23 25 26 26 20 28 25 25 27 25 27 25 22 21 14 13 17 18 16 14 18 17 21 21 22 22
27 28 29 31 28 16 6 17 13 13 11 18 27 26 23 25 16 23 31 29 30 30 29 27 20 27 26 25 27 28 27 23 19 21 16 16 18 17 16 14 15 19 21 22 24
25 27 27 31 11 12 11 17 13 9 10 10 11 8 22 20 21 26 31 31 21 33 30 29 25 26 27 27 27 27 26 23 20 20 17 23 16 20 18 17 18 20 21 21 23
24 26 27 14 13 9 15 16 13 8 10 14 11 8 11 25 8 30 29 35 27 26 30 30 28 23 27 26 25 23 20 25 23 22 20 23 17 16 25 26 23 21 22 22 24
25 26 24 2 11 14 16 16 7 10 12 8 8 10 14 24 26 24 27 32 29 26 27 30 21 24 22 23 23 20 16 19 22 19 23 24 22 20 18 17 24 23 23 24 22
25 26 18 9 10 15 13 10 10 13 1 11 13 12 12 17 24 16 32 33 30 30 29 28 32 24 22 22 24 18 20 13 17 19 19 24 26 18 20 20 20 21 24 23 21
28 28 8 9 11 12 11 13 15 20 16 22 20 23 21 20 22 24 27 27 35 30 19 22 27 34 21 28 23 25 25 15 21 18 17 25 27 23 26 17 18 22 21 21 22
31 6 5 9 12 8 10 13 11 14 19 20 26 21 18 22 8 25 27 27 30 34 31 26 32 33 31 24 27 23 27 26 23 23 16 19 27 24 20 26 20 14 22 22 23
11 11 1 14 12 9 10 15 14 12 17 17 21 17 23 16 9 17 23 23 26 34 31 27 18 31 31 26 29 27 25 24 17 18 16 14 14 17 20 15 27 25 18 23 21
10 8 10 15 12 9 9 12 17 17 13 13 21 22 19 20 26 17 20 9 11 14 32 33 20 18 26 30 27 26 22 25 20 19 12 11 11 15 19 20 18 19 26 20 20
8 8 10 12 12 2 7 9 6 13 13 13 16 20 18 12 18 22 16 12 12 15 16 20 14 21 31 27 25 27 28 27 18 24 17 12 4 9 6 6 19 20 18 22 20
9 10 4 9 8 10 9 13 9 12 9 9 13 13 20 17 10 15 12 9 11 12 10 7 15 17 22 27 28 31 31 25 26 18 20 15 5 9 5 1 13 15 15 15 16
7 6 6 8 7 12 13 15 14 7 8 12 7 7 17 17 16 12 10 13 7 9 14 10 17 24 17 21 22 28 28 30 24 20 17 19 13 12 9 10 8 4 6 9 4
6 6 6 8 10 12 12 14 12 7 9 13 1 7 8 9 18 9 11 16 11 3 12 8 15 20 26 17 7 27 31 31 31 24 24 15 19 16 14 11 12 13 9 8 8
7 6 7 13 8 13 12 13 10 13 14 15 8 15 11 12 13 15 13 14 5 14 11 12 12 18 24 23 5 14 19 32 30 28 24 23 15 17 16 11 7 5 5 5 7
3 9 5 8 10 8 11 13 13 16 11 10 10 13 15 9 14 17 11 17 16 15 13 13 11 8 14 20 10 18 20 19 23 27 23 22 19 14 4 3 4 5 7 9 10
Wind_Direction
353 350 347 344 341 338 334 330 326 322 320 318 315 311 309 307 296 245 246 249 197 169 210 182 196 203 211 217 233 264 277 279 175 61 119 152 110 70 91 129 130 81 135 137 155
352 349 345 342 339 335 330 326 322 318 315 313 309 305 304 309 282 263 242 215 149 173 195 187 190 194 211 222 220 238 55 288 63 81 116 114 101 118 135 138 117 110 116 140 157
351 347 343 338 335 333 329 324 320 315 311 308 304 300 296 301 273 251 2 171 164 184 211 197 197 199 218 226 221 226 153 263 106 38 340 142 119 142 122 158 139 133 144 153 157
348 344 338 334 332 330 327 322 318 312 307 300 294 291 294 269 264 78 112 160 169 196 219 198 205 202 218 218 222 245 169 259 116 116 23 154 126 127 178 120 131 142 153 156 167
345 340 333 330 328 327 323 320 315 309 302 291 277 271 262 221 249 120 124 161 180 201 212 199 207 204 217 224 222 233 268 217 249 215 202 2 147 136 122 131 134 146 159 164 172
341 336 332 330 329 326 324 320 314 309 298 279 249 224 235 248 264 208 168 168 184 198 209 203 211 208 226 236 214 215 241 246 228 222 199 208 168 205 149 148 145 155 165 170 177
339 336 334 330 328 326 324 320 317 308 293 262 201 218 235 239 157 215 203 191 197 200 207 207 215 212 228 244 235 244 241 231 236 231 224 221 198 199 153 158 158 164 169 173 181
338 336 333 330 328 325 323 319 314 312 356 178 177 210 254 209 240 229 204 197 197 208 221 205 217 223 227 244 243 224 239 230 214 213 213 215 206 194 169 170 170 171 173 176 182
336 335 332 330 328 324 317 314 302 337 116 149 178 231 257 121 220 215 209 202 191 203 222 209 215 225 222 237 226 216 226 221 221 204 208 208 243 167 171 173 178 179 176 180 182
335 334 331 330 327 320 315 295 235 176 188 208 269 213 242 226 202 204 208 207 192 191 203 213 212 213 224 213 223 216 214 222 222 181 208 194 231 161 173 176 185 183 181 184 186
334 333 333 330 327 317 323 284 247 195 234 261 185 250 298 193 164 190 190 193 198 196 198 201 204 212 210 218 229 241 223 229 209 185 195 227 203 220 167 192 187 182 189 189 190
333 332 332 328 323 317 331 32 27 303 294 272 258 258 260 248 206 192 186 192 196 196 199 187 219 215 222 216 224 233 244 226 230 224 205 212 229 233 207 180 199 186 192 193 190
332 331 329 325 319 304 346 16 335 318 267 280 237 231 215 225 225 195 191 199 197 199 201 208 210 216 212 220 214 229 230 236 234 224 210 233 243 229 216 184 193 198 191 196 193
329 328 328 325 288 332 10 342 330 320 276 246 195 224 213 198 230 239 193 200 192 208 207 221 223 197 216 218 218 221 222 241 238 241 223 208 237 218 231 202 188 203 191 195 198
327 325 325 329 306 331 340 323 324 257 276 109 126 104 180 193 185 199 185 203 211 207 208 211 218 204 210 215 215 229 224 218 237 244 250 245 235 237 203 212 193 202 197 199 191
327 323 327 295 256 351 323 314 272 236 236 156 121 188 181 209 248 168 186 210 221 210 214 229 207 223 214 216 218 221 228 235 219 232 236 233 239 234 234 215 191 195 203 195 199
323 317 314 304 331 322 319 285 243 242 0 32 358 321 232 204 221 207 187 196 207 215 214 212 229 211 226 211 208 202 209 204 216 217 234 219 232 234 232 222 216 205 200 198 192
321 309 241 269 326 321 300 269 253 277 14 355 329 308 279 266 201 205 194 201 213 211 213 211 209 221 198 213 199 201 209 217 207 218 226 223 226 227 236 246 230 200 206 194 189
311 287 267 350 325 305 283 268 285 354 348 335 320 280 251 231 261 207 214 211 205 219 220 204 223 192 215 211 213 191 214 218 236 211 237 215 215 238 231 217 219 222 202 202 180
313 292 145 346 320 277 267 271 355 356 335 324 301 305 324 343 217 254 211 222 219 211 236 247 224 221 196 206 216 228 204 215 236 253 217 238 234 205 200 230 205 209 212 211 197
271 296 35 336 284 268 299 357 341 330 322 313 308 301 308 318 314 285 247 76 1 288 215 237 253 242 202 200 200 207 212 214 231 233 239 244 239 219 197 196 216 213 207 211 203
303 313 25 316 285 28 326 353 279 301 309 330 314 296 281 304 298 302 336 43 354 313 270 212 227 241 202 195 213 209 215 201 221 216 238 272 55 46 93 215 190 210 206 211 206
319 299 139 315 358 331 352 316 305 318 342 337 315 342 317 293 304 336 319 341 346 318 6 231 226 228 228 190 198 219 205 216 213 232 212 231 193 92 103 132 185 194 198 206 196
301 305 352 292 348 330 340 312 322 56 311 318 1 345 337 309 265 275 311 311 329 342 322 284 255 231 220 197 188 211 209 214 216 217 223 207 218 132 103 129 145 155 158 177 181
287 348 7 310 332 338 301 290 295 326 343 300 163 321 326 313 318 14 321 318 298 70 312 273 245 244 254 255 236 201 212 216 215 219 223 207 208 163 139 136 133 141 129 126 144
308 343 324 296 318 302 296 302 306 334 329 303 321 332 313 296 296 302 304 319 329 333 337 314 271 255 253 250 215 261 242 213 214 220 223 235 232 197 158 178 188 207 198 235 279
342 308 301 291 298 299 295 319 318 302 303 327 309 308 301 318 291 302 257 272 280 293 301 299 283 246 234 240 226 238 236 240 226 210 224 221 232 253 222 221 247 249 237 238 259